Regional Weather Roundup
Issued by NWS

Home | Current Version | Previous Version | Text Only | Print | Product List | Glossary On
Versions: 1 2 3 4 5 6 7 8 9 10 11 12 13 14 15 16 17 18 19 20 21 22 23 24 25 26 27 28 29 30 31 32 33 34 35 36 37 38 39 40 41 42 43 44 45 46 47 48 49 50
124
ASUS43 KMKX 260120
RWRWI

WISCONSIN REGIONAL WEATHER ROUNDUP
NATIONAL WEATHER SERVICE MILWAUKEE/SULLIVAN WI
800 PM CDT WED APR 25 2018

NOTE: "FAIR" INDICATES FEW OR NO CLOUDS BELOW 12,000 FEET WITH NO
SIGNIFICANT WEATHER AND/OR OBSTRUCTIONS TO VISIBILITY.

WIZ001-002-006>008-014>016-023>028-260200-
NORTHWEST WISCONSIN

CITY           SKY/WX    TMP DP  RH WIND       PRES   REMARKS
SUPERIOR ARPT  FAIR      51  21  30 S5        29.95F
ASHLAND        FAIR      40  27  59 CALM      29.98F
HAYWARD        FAIR      50  21  32 S5        29.98F
SIREN          FAIR      52  17  25 W3        30.00S
CUMBERLAND     FAIR      48  25  40 CALM      30.00S
RICE LAKE      FAIR      48  25  40 CALM      30.01F
CHETEK         FAIR      47  25  41 CALM      30.01S
LADYSMITH      FAIR      48  26  42 CALM      30.01S
EAU CLAIRE     FAIR      54  25  32 W5        29.99F
MENOMONIE      FAIR      54  23  30 W3        30.00F
NEW RICHMOND   FAIR      52  18  25 CALM      30.01S
OSCEOLA        FAIR      54  24  31 SW3       30.02F
$$

WIZ003>005-009-010-017-018-260200-
NORTH CENTRAL WISCONSIN

CITY           SKY/WX    TMP DP  RH WIND       PRES   REMARKS
MANITOWISH WTR FAIR      44  22  42 CALM      29.99S
ARBOR VITAE    FAIR      46  21  37 CALM      29.99S
WOODRUFF       FAIR      46  21  37 CALM      29.99S
RHINELANDER    FAIR      50  17  27 CALM      30.00S
EAGLE RIVER    FAIR      42  19  39 CALM      29.99R
LAND O LAKES   FAIR      39  22  48 CALM      30.01R
PHILLIPS       FAIR      46  22  39 CALM      29.98F
TOMAHAWK       FAIR      45  22  41 CALM      30.00S
MEDFORD        FAIR      49  27  42 W5        29.99S
MERRILL        FAIR      49  25  38 CALM      30.00S
$$

WIZ029-030-035-036-043>047-260200-
CENTRAL WISCONSIN

CITY           SKY/WX    TMP DP  RH WIND       PRES   REMARKS
WAUSAU         FAIR      51  23  33 W3        29.98S
MOSINEE        PTCLDY    50  25  37 W3        30.01S
MARSHFIELD     FAIR      51  30  44 CALM      29.99F
STEVENS POINT  FAIR      50  27  40 CALM      30.01S
WAUPACA        FAIR      53  26  35 W3        30.01S
WAUTOMA        FAIR      50  30  46 CALM      30.02
WISC RAPIDS    FAIR      48  27  44 CALM      30.01F
CAMP DOUGLAS   FAIR      49  28  43 E3        30.00S
$$

WIZ011>013-019>022-031-037>040-048>050-260200-
NORTHEAST WISCONSIN

CITY           SKY/WX    TMP DP  RH WIND       PRES   REMARKS
ANTIGO         FAIR      48  26  42 CALM      29.99F
SHAWANO        FAIR      51  27  39 W3        29.99S
OCONTO         FAIR      42  29  61 E3        30.01S
STURGEON BAY   FAIR      40  27  59 SE5       30.02F
GREEN BAY      FAIR      51  35  54 S6        30.00F
MANITOWOC      FAIR      39  29  67 SE3       30.04S
APPLETON       PTCLDY    50  25  37 S6        30.00S
CLINTONVILLE   FAIR      52  23  32 W3        30.00S
OSHKOSH        FAIR      43  34  70 S5        30.01F
$$

WIZ032>034-041-042-053>061-260200-
SOUTHWEST WISCONSIN

CITY           SKY/WX    TMP DP  RH WIND       PRES   REMARKS
LA CROSSE      FAIR      56  27  32 W3        30.00F
SPARTA         FAIR      53  29  40 CALM      30.02S
VIROQUA        FAIR      53  29  41 CALM      30.00F
BOSCOBEL       FAIR      57  29  34 N3        30.00F
PRAIRIE DU CHI FAIR      58  21  24 NE3       30.01S
PLATTEVILLE    FAIR      56  30  37 N5        30.00S
$$

WIZ056-057-062-063-064-067-068-260200-
SOUTH CENTRAL WISCONSIN

CITY           SKY/WX    TMP DP  RH WIND       PRES   REMARKS
REEDSBURG      FAIR      54  28  36 CALM      30.00R
BARABOO/DELLS  FAIR      53  21  28 CALM      30.00S
LONE ROCK      FAIR      53  31  42 CALM      30.00S
MINERAL POINT  FAIR      55  25  30 N3        30.00S
MADISON        FAIR      54  26  34 CALM      30.00S
MIDDLETON      FAIR      53  28  37 CALM      30.01S
WATERTOWN      FAIR      48  32  53 E5        30.01S
MONROE         FAIR      54  27  35 NE3       29.99S
JANESVILLE     PTCLDY    54  27  35 NE6       30.00S
$$

WIZ051-052-058>065-066-070>072-260200-
SOUTHEAST WISCONSIN

CITY           SKY/WX    TMP DP  RH WIND       PRES   REMARKS
MILWAUKEE      FAIR      41  28  60 CALM      30.05S
WAUKESHA       CLEAR     43  28  56 E8        30.04S
MILWAUKEE/TIMM CLEAR     43  25  49 E3        30.05S
RACINE         FAIR      40  29  64 CALM      30.06S
BURLINGTON     FAIR      41  29  62 E7        30.04S
KENOSHA        FAIR      38  26  62 E6        30.04F WCI  33
FOND DU LAC    FAIR      50  27  40 CALM      30.01F
SHEBOYGAN      FAIR      41  29  62 E3        30.03S
WEST BEND      FAIR      41  30  65 SE6       30.03S
JUNEAU         FAIR      48  32  55 CALM      30.02F
$$

LSZ147-162-260200-
LAKE SUPERIOR

STATION/POSITION TIME  TEMP    WIND        PRES    WAVE
                       AIR SEA DIR/SP/G            HT/PER
                 (UTC) (F)     (DEG/KT/KT) (MB)    (FT/S)
DEVILS ISLAND    0100   44     160/  9/ 11 1015.0F
SAXON HARBOR     0040   40      CALM  /  1 1015.2F
$$

LMZ867-665-643>646-260200-
LAKE MICHIGAN

STATION/POSITION TIME  TEMP    WIND        PRES    WAVE
                       AIR SEA DIR/SP/G            HT/PER
                 (UTC) (F)     (DEG/KT/KT) (MB)    (FT/S)
NORTHPORT PIER   0040   41                 1016.6S
KEWAUNEE LAKESHO 0100   40     160/  4/  5 1016.2
SHEBOYGAN LAKESH 0100   40     160/  2/  3 1017.5F
PORT WASHINGTON  0030   41      30/  3/  4 1018.3S
MILWAUKEE LAKESH 0100   40      30/  2/  2   N/A
KENOSHA   LAKESH 0100   40                 1017.6
$$

TC  - TEMPERATURE IN CELSIUS
VSB - VISIBILITY IN STATUTE MILES
WCI - WIND CHILL INDEX
HX  - HEAT INDEX





USA.gov is the U.S. government's official web portal to all federal, state and local government web resources and services.